www.pogodaiklimat.ru

Погода и климат >> Архив погоды >> Россия >> город Москва >> Москва


АРХИВ ПОГОДЫ в Москве

Время (UTC), дата Ветер
(напр.,м/с)
 
Видим.   Явления Облачность Т
(С)
Тd
(С)
f
(%)
Тe
(С)
Тes
(С)
Комфортность P
(гПа)
Po
(гПа)
Тmin
(С)
Tmax
(С)
R
(мм)
R24
(мм)
S
(см)
00 8.11 З 1 н/о дымка 10/10 200 м
[St]
+2.7 +2.1 96 +1 +1 по сезону 1024.2 1004.4
03 8.11 З 1 н/о дымка 10/10 200 м
[St]
+3.0 +2.1 94 +1 +1 по сезону 1024.3 1004.5 +2.1
06 8.11 С 2 4000 м дымка 10/10 200 м
[St]
+3.0 +2.1 94 -0 -0 по сезону 1024.9 1005.1 +2.1
09 8.11 С 1 4000 м дымка 10/10 100 м
[St]
+2.9 +1.9 93 +1 +1 по сезону 1025.2 1005.4
12 8.11 СВ 1 4000 м дымка 10/10 200 м
[St]
+3.1 +2.0 92 +1 +1 по сезону 1025.0 1005.2
15 8.11 С 1 н/о дымка 10/10 200 м
[St]
+2.8 +2.2 96 +1 +1 по сезону 1025.1 1005.3
18 8.11 штиль 0 н/о слабая морось 10/10 200 м
[St]
+2.7 +2.4 98 +1 +1 по сезону 1024.8 1005.0 +3.2 0.1
21 8.11 штиль 0 н/о слабая морось 10/10 100 м
[St]
+2.6 +2.4 99 +1 +1 по сезону 1025.0 1005.2
00 9.11 штиль 0 н/о дождь {морось} 10/10 100 м
[Frnb]
+2.4 +2.3 99 +1 +1 по сезону 1025.0 1005.1
03 9.11 ЮВ 1 н/о слабая морось {дождь} 10/10 100 м
[Frnb]
+2.3 +2.2 99 0 0 по сезону 1024.8 1005.0 +2.3 0.8
06 9.11 штиль 0 4000 м дымка {дождь, морось} 10/10 300 м
[Frnb]
+2.5 +2.3 99 +1 +1 по сезону 1025.5 1005.7 +2.2 0.7
09 9.11 В 1 4000 м дымка 10/10 600 м
[Sc]
+3.1 +2.1 93 +1 +1 по сезону 1025.9 1006.1
12 9.11 ЮВ 1 4000 м слабый дождь 10/10 300 м
[Frnb]
+2.4 +1.8 96 +1 +1 по сезону 1025.9 1006.1
15 9.11 штиль 0 н/о дымка {дождь} 10/10 300 м
[Frnb]
+2.5 +0.9 89 +1 +1 по сезону 1026.2 1006.4 0.3
18 9.11 СВ 1 н/о дымка {дождь} 10/10 600 м
[Sc]
+1.9 +0.4 90 0 0 по сезону 1026.4 1006.5 +3.2 0.3
21 9.11 В 1 н/о дымка 10/10 600 м
[Sc]
+1.6 +0.2 90 -0 -0 по сезону 1026.8 1006.9
00 10.11 В 1 н/о слабый дождь 10/10 300 м
[Frnb]
+1.2 +0.8 97 -1 -1 по сезону 1027.2 1007.3
03 10.11 В 1 н/о дымка {дождь} 10/10 600 м
[Sc]
+1.3 +0.4 94 -1 -1 по сезону 1027.3 1007.3 +1.1 0.3
06 10.11 В 1 4000 м дымка {дождь} 10/10 600 м
[Sc]
+1.4 +0.3 92 -1 -1 по сезону 1028.3 1008.4 +1.1 0.3
09 10.11 В 1 4000 м дымка 10/10 600 м
[Sc]
+2.1 +0.3 88 0 0 по сезону 1029.3 1009.4
12 10.11 ЮВ 1 4000 м слабый дождь 10/10 300 м
[Frnb]
+2.4 +0.6 88 +1 +1 по сезону 1030.3 1010.4
15 10.11 В 1 н/о дымка {дождь} 10/10 600 м
[Sc]
+2.0 +0.9 92 0 0 по сезону 1031.1 1011.4 0.1
18 10.11 В 2 н/о в посл. час дождь 10/10 300 м
[Frnb]
+1.8 -0.2 87 -2 -2 по сезону 1033.6 1013.6 +2.5 0.2
21 10.11 ЮВ 2 н/о дымка 10/10 600 м
[Sc]
+1.3 -1.0 85 -2 -2 по сезону 1036.1 1016.0
00 11.11 ЮВ 2
{10}
н/о слабая переохл. морось (гололёд) 10/10 300 м
[St]
-1.4 -3.3 87 -5 -5 по сезону 1038.9 1018.6
03 11.11 ЮВ 2 н/о дымка {морось} 10/10 600 м
[Sc]
-1.7 -6.9 68 -5 -5 по сезону 1040.9 1020.5 -1.7 0.1
06 11.11 ЮВ 2 10 км {морось} 9/9 600 м
[Sc]
-2.4 -7.8 66 -6 -6 прохладно 1043.1 1022.6 -2.5
09 11.11 ЮВ 2 10 км ясно -2.2 -8.9 60 -6 -4 прохладно 1044.5 1024.0
12 11.11 ЮВ 2 10 км ясно -1.5 -9.5 54 -5 -4 прохладно 1045.5 1024.9
15 11.11 ЮВ 2 н/о ясно -3.1 -12.1 50 -7 -7 холодно 1046.6 1026.0
18 11.11 ЮВ 3 н/о ясно -4.5 -13.3 50 -9 -9 холодно 1047.2 1026.4 -1.4
21 11.11 Ю 2 н/о ясно -5.6 -12.4 59 -10 -10 холодно 1047.5 1026.6
00 12.11 ЮВ 2 н/о ясно -6.2 -11.0 69 -10 -10 холодно 1047.4 1026.5
03 12.11 Ю 2 н/о ясно -6.9 -10.6 75 -11 -11 очень
холодно
1047.3 1026.3 -6.9
06 12.11 Ю 2 10 км ясно -7.2 -10.5 77 -12 -11 очень
холодно
1047.9 1026.8 -7.3
09 12.11 Ю 2 10 км ясно -4.7 -10.7 63 -9 -7 холодно 1047.3 1026.5
12 12.11 Ю 2 10 км ясно -2.1 -11.5 49 -5 -5 прохладно 1045.8 1025.2
15 12.11 Ю 2 н/о ясно -3.1 -10.1 58 -7 -7 прохладно 1045.8 1025.2
18 12.11 Ю 2 н/о ясно -4.4 -10.1 64 -8 -8 холодно 1045.6 1024.9 -2.1
21 12.11 Ю 2 н/о ясно -5.3 -10.7 66 -9 -9 холодно 1045.3 1024.5
00 13.11 ЮЗ 1 н/о ясно -6.1 -11.1 68 -8 -8 прохладно 1044.9 1024.0
03 13.11 Ю 1 н/о ясно -6.6 -11.2 70 -9 -9 холодно 1043.6 1022.9 -6.8
06 13.11 штиль 0 10 км 6/0
[Ci fib]
-6.2 -11.6 66 -7 -7 прохладно 1042.4 1021.9 -7.0
09 13.11 Ю 2 10 км 4/0
[Cs]
-2.8 -15.3 38 -6 -5 прохладно 1041.1 1020.6
12 13.11 Ю 2 10 км 4/0
[Ac cast Ci fib]
-1.2 -17.7 27 -4 -3 по сезону 1038.9 1018.5
15 13.11 Ю 2 н/о 8/0
[Ac trans]
-1.6 -17.6 28 -4 -4 по сезону 1037.4 1017.0
18 13.11 Ю 2 н/о 10/0
[Ac und]
-2.3 -16.8 32 -5 -5 по сезону 1035.8 1015.4 -1.1
21 13.11 Ю 2 н/о 10/0
[Ac und]
-3.3 -14.9 40 -7 -7 прохладно 1033.8 1013.3
00 14.11 Ю 1 н/о 10/6 1000 м
[Sc Ac trans]
-3.2 -11.3 54 -5 -5 по сезону 1032.1 1011.7
03 14.11 Ю 1 н/о 10/10 1000 м
[Sc]
-3.2 -10.3 58 -5 -5 по сезону 1030.2 1009.9 -3.4
06 14.11 Ю 2 10 км 9/8 1000 м
[Sc Ac trans]
-2.7 -9.8 58 -6 -6 по сезону 1029.1 1008.8 -3.4
09 14.11 Ю 2 10 км 10/6 1000 м
[Sc Ac As]
-0.5 -8.6 54 -4 -3 по сезону 1028.4 1008.3
12 14.11 Ю 1 10 км 10/8 600 м
[Sc Ac und]
+0.9 -4.3 68 -1 -1 по сезону 1027.8 1007.8
15 14.11 Ю 1 н/о 10/10 600 м
[Sc]
+0.8 -2.6 78 -1 -1 по сезону 1027.8 1007.9
18 14.11 Ю 2 н/о 10/10 600 м
[Sc]
+0.4 -2.5 81 -3 -3 по сезону 1028.7 1008.7 +0.9
21 14.11 Ю 1 н/о слабый снег 10/10 300 м
[Frnb]
0.0 -2.1 86 -2 -2 по сезону 1030.1 1010.0

 

Местоположение метеостанции Москва (город Москва, Россия): широта 55.83 долгота 37.62 высота над уровнем моря 156 м.

В архиве по умолчанию представлена погода в Москве за последнюю неделю. Архивные данные за месяц целиком и за предыдущие месяцы, начиная с января 2011 года, Вы можете получить, выбрав интересующий диапазон дат из раскрывающегося списка и нажав кнопку "Ввод!".


*Определитесь, кто Вы:
робот инопланетянин человек

Внимание! Время в таблицах - всемирное. Для получения местного времени необходимо прибавить поправку, которая в Москве равна 3 ч.

Смотрите также архив погоды в соседних городах и на ближайших метеорологических станциях:

Погода в Москве (Балчуг) (город Москва, Россия) (9 км)
Погода в Москве (Тушино) (город Москва, Россия) (12 км)
Погода в Долгопрудном (Московская область, Россия) (13 км)
Погода в Москве (Строгино) (город Москва, Россия) (14 км)
Погода в Красногорске (Московская область, Россия) (18 км)
Погода в Шереметьево (Московская область, Россия) (20 км)
Погода в Немчиновке (город Москва, Россия) (21 км)
Погода в Железнодорожном АМС (Московская область, Россия) (23 км)
Погода в Луговой (Московская область, Россия) (26 км)
Погода в Пушкино (Московская область, Россия) (26 км)

Пояснения к столбцам:

Ветер - указаны скорость ветра в м/с - средняя за 10 мин, порывы в срок и между сроками (в фигурных скобках) и направление, откуда дует ветер: С - северный, СВ - северо-восточный, В - восточный, ЮВ - юго-восточный, Ю - южный, ЮЗ - юго-западный, З - западный, СЗ - северо-западный.
Видимость - горизонтальная дальность видимости в метрах или километрах. При видимости от 1 до 10 км при отсутствии осадков обычно наблюдается дымка, при ухудшении видимости до 1 км и менее - туман. В сухую погоду видимость может ухудшаться дымом, пылью или мглою.
Явления - указаны атмосферные явления, наблюдавшиеся в срок или в последний час перед сроком; фигурными скобками обозначены явления, наблюдавшиеся между сроками (за 1-3 часа до срока); квадратными скобками обозначены град или гололедные отложения с указанием их диаметра в мм.
Облачность - указаны через наклонную черту общая и нижняя облачность в баллах и высота нижней границы облаков в метрах; квадратными скобками обозначены формы облаков: Ci - перистые, Cs - перисто-слоистые, Cc - перисто-кучевые, Ac - высококучевые, As - высокослоистые, Sc - слоисто-кучевые, Ns - слоисто-дождевые, Cu - кучевые, Cb - кучево-дождевые. Подробнее классификацию облаков см. в Атласе облаков (PDF).
T - Температура воздуха - температура, измеренная на высоте 2 м над землей.
Td - Температура точки росы - температура, при понижении до которой содержащийся в воздухе водяной пар достигнет насыщения.
f - Относительная влажность воздуха - влажноcть воздуха, измеренная на высоте 2 м над землей.
Te - Эффективная температура - температура, которую ощущает одетый по сезону человек в тени. Характеристика душности погоды. При расчете учитывается влияние влажности воздуха и скорости ветра на теплоощущения человека.
Tes - Эффективная температура на солнце - температура, которую ощущает человек, с поправкой на солнечный нагрев. Характеристика знойности погоды. Зависит от высоты солнца над горизонтом, облачности и скорости ветра. Ночью, в пасмурную погоду, а также при ветре 12 м/с и более поправка равна нулю.
P - Атмосферное давление - приведенное к уровню моря атмосферное давление.
Po - Атмосферное давление - измеренное на уровне метеостанции атмосферное давление.
Tmin - Минимальная температура - минимум температуры воздуха на высоте 2 м над землей.
Tmax - Максимальная температура - максимум температуры воздуха на высоте 2 м над землей.
R - Количество осадков - Количество выпавших осадков за период времени, мм. При наведении курсора мыши на число - период времени, за который выпало указанное количество осадков.
R24 - Количество осадков - Количество выпавших осадков за 24 часа, мм.
S - Снежный покров - Высота снежного покрова, см. При наведении курсора мыши на число - состояние снежного покрова и степень покрытия местности в баллах.